Regional Weather Roundup
Issued by NWS

Home | Current Version | Previous Version | Text Only | Print | Product List | Glossary On
Versions: 1 2 3 4 5 6 7 8 9 10 11 12 13 14 15 16 17 18 19 20 21 22 23 24 25 26 27 28 29 30 31 32 33 34 35 36 37 38 39 40 41 42 43 44 45 46 47 48 49 50
516
ASUS43 KTOP 300359
RWRKS

WEATHER ROUNDUP FOR KANSAS
NATIONAL WEATHER SERVICE GOODLAND KS
1100 PM CDT SUN MAY 29 2016

NOTE:  "FAIR" INDICATES FEW OR NO CLOUDS BELOW 12,000 FEET WITH NO
SIGNIFICANT WEATHER AND/OR OBSTRUCTIONS TO VISIBILITY.

KSZ001>006-013>018-027>032-041>047-300500-
NORTHWEST KANSAS

CITY           SKY/WX    TMP DP  RH WIND       PRES   REMARKS
GOODLAND       CLOUDY    60  49  66 S12       30.06R
HAYS           CLOUDY    63  52  67 SE9       30.07R
HILL CITY      CLOUDY    67  50  54 SE7       30.08R
$$

KSZ061>065-074>080-084>089-300500-
SOUTHWEST KANSAS

CITY           SKY/WX    TMP DP  RH WIND       PRES   REMARKS
DODGE CITY     PTCLDY    63  50  62 S13       30.12R
ELKHART          N/A     56  51  84 S12         N/A
GARDEN CITY    CLOUDY    63  53  70 SE16      30.07S
GREAT BEND     CLOUDY    70  55  60 E7        30.08S
LIBERAL        CLOUDY    57  48  72 S7        30.11R
$$

KSZ066>073-081>083-090>101-300500-
SOUTHEAST KANSAS

CITY           SKY/WX    TMP DP  RH WIND       PRES   REMARKS
CHANUTE        CLEAR     67  65  93 CALM      30.07R
COFFEYVILLE    CLOUDY    67  66  97 E5        30.07R
HUTCHINSON     CLOUDY    67  58  72 CALM      30.08R
MEDICINE LODGE   N/A     69  61  75 E7        30.09R
NEWTON         CLOUDY    66  54  63 S6        30.10R
PARSONS        CLEAR     68  66  93 CALM      30.08R
WICHITA INTL   CLOUDY    66  58  75 S6        30.07R
WICHITA JABRA  CLOUDY    62  59  90 S3        30.08R
WINFIELD       PTCLDY    71  62  73 E5        30.09R
$$

KSZ007>012-019>026-033>040-048>060-102>105-300500-
NORTHEAST KANSAS

CITY           SKY/WX    TMP DP  RH WIND       PRES   REMARKS
CONCORDIA      CLOUDY    66  61  84 N7        30.06R
EMPORIA        PTCLDY    67  64  90 S7        30.06S
LAWRENCE       CLOUDY    66  64  93 SE3       30.05S
MANHATTAN      CLOUDY    66  63  90 S3        30.05S
OLATHE IND     CLOUDY    68  61  78 S5        30.07S
OLATHE EXE     CLOUDY    70  62  76 S3        30.07R
SALINA         CLOUDY    70  61  73 SW5       30.07R
TOPEKA BILLARD CLOUDY    71  65  81 CALM      30.05R
TOPEKA FORBES  CLOUDY    70  66  87 S5        30.05S
$$




USA.gov is the U.S. government's official web portal to all federal, state and local government web resources and services.